Ft Lauderdale, FL

7:48 AM EST on January 24, 2018 (GMT -0500)
Fort Lauderdale-Hollywood International

Weather History for KFLL - November, 2014

Change the Weather History Date:

Monday, November 10, 2014

  Actual Average Record
Temperature  
Mean Temperature 72 °F 76 °F  
Max Temperature 78 °F 82 °F 88 °F (1958)
Min Temperature 65 °F 70 °F 48 °F (1956)
Degree Days  
Heating Degree Days 0 0  
Month to date heating degree days 2 0  
Since 1 July heating degree days 2 0  
Cooling Degree Days 7 11  
Month to date cooling degree days 82 121  
Year to date cooling degree days 4429 4315  
Growing Degree Days 20 (Base 50)    
Moisture  
Dew Point 64 °F    
Average Humidity 81    
Maximum Humidity 93    
Minimum Humidity 68    
Precipitation  
Precipitation 0.59 in 0.10 in 1.12 in (1968)
Month to date precipitation 1.12 1.38  
Year to date precipitation 57.56 57.86  
Snow  
Snow 0.00 in - - ()
Month to date snowfall 0.0  
Since 1 July snowfall 0.0  
Since 1 September snowfall 0.0  
Snow Depth 0.00 in    
Sea Level Pressure  
Sea Level Pressure 29.90 in    
Wind  
Wind Speed 7 mph (NW)    
Max Wind Speed 14 mph    
Max Gust Speed 18 mph    
Visibility 9 miles    
Events Rain    
T = Trace of Precipitation, MM = Missing Value Source: NWS Daily Summary

Daily Weather History Graph

Daily Weather History Graph

Search for Another Location

Airport or City:

Trip Planner

Search our weather history database for the weather conditions in past years. The results will help you decide how hot, cold, wet, or windy it might be!

Date:

Astronomy

Nov. 10, 2014 Rise Set
Actual Time 6:35 AM EST 5:33 PM EST
Civil Twilight 6:11 AM EST 5:57 PM EST
Nautical Twilight 5:43 AM EST 6:25 PM EST
Astronomical Twilight 5:16 AM EST 6:52 PM EST
Moon 9:02 PM EST (11/10) 9:52 AM EST (11/10)
Length of Visible Light 11h 46m
Length of Day
10h 57m
Waning Gibbous, 85% of the Moon is Illuminated
Nov 10
Waning Gibbous
Nov 14
Last Quarter
Nov 22
New
Nov 29
First Quarter
Dec 6
Full

Hourly Weather History & Observations

Time (EST) Temp. Dew Point Humidity Pressure Visibility Wind Dir Wind Speed Gust Speed Precip Events Conditions
12:26 AM 68.0 °F 64.9 °F 90% 29.88 in 10.0 mi WNW 8.1 mph - N/A   Overcast
12:53 AM 68.0 °F 64.9 °F 90% 29.88 in 10.0 mi NW 4.6 mph - N/A   Overcast
1:53 AM 68.0 °F 64.9 °F 90% 29.88 in 7.0 mi WNW 8.1 mph - 0.05 in Rain Light Rain
2:17 AM 68.0 °F 64.9 °F 90% 29.88 in 2.5 mi WNW 6.9 mph - 0.16 in Rain Heavy Rain
2:21 AM 68.0 °F 64.9 °F 90% 29.88 in 4.0 mi NW 10.4 mph - 0.17 in Rain Rain
2:53 AM 66.9 °F 64.0 °F 90% 29.87 in 8.0 mi WNW 9.2 mph - 0.28 in Rain Light Rain
3:53 AM 66.9 °F 64.0 °F 90% 29.88 in 8.0 mi NNW 6.9 mph - 0.19 in Rain Light Rain
4:37 AM 66.9 °F 64.0 °F 90% 29.88 in 10.0 mi NW 5.8 mph - 0.00 in Rain Light Rain
4:53 AM 68.0 °F 64.0 °F 87% 29.88 in 10.0 mi NNW 6.9 mph - 0.00 in   Overcast
5:53 AM 66.9 °F 64.0 °F 90% 29.89 in 10.0 mi NW 5.8 mph - 0.01 in Rain Light Rain
6:53 AM 64.9 °F 64.0 °F 97% 29.91 in 10.0 mi NNW 8.1 mph - 0.01 in Rain Light Rain
7:53 AM 66.0 °F 64.0 °F 93% 29.92 in 6.0 mi WNW 6.9 mph - 0.02 in Rain Light Rain
8:15 AM 66.0 °F 64.0 °F 93% 29.92 in 6.0 mi WNW 6.9 mph - 0.02 in Rain Light Rain
8:53 AM 66.0 °F 64.9 °F 96% 29.92 in 10.0 mi NW 8.1 mph - 0.03 in   Overcast
9:53 AM 66.9 °F 64.9 °F 93% 29.93 in 10.0 mi WNW 6.9 mph - N/A   Mostly Cloudy
10:53 AM 68.0 °F 64.9 °F 90% 29.93 in 10.0 mi NW 5.8 mph - 0.00 in   Mostly Cloudy
11:53 AM 73.0 °F 66.0 °F 79% 29.92 in 10.0 mi WNW 9.2 mph - N/A   Mostly Cloudy
12:53 PM 75.0 °F 64.9 °F 71% 29.90 in 10.0 mi WNW 10.4 mph - N/A   Mostly Cloudy
1:53 PM 75.0 °F 64.0 °F 69% 29.88 in 10.0 mi NNW 13.8 mph - N/A   Scattered Clouds
2:53 PM 75.9 °F 64.9 °F 69% 29.88 in 10.0 mi NW 8.1 mph - N/A   Scattered Clouds
3:53 PM 75.9 °F 64.0 °F 67% 29.88 in 10.0 mi NW 6.9 mph - N/A   Scattered Clouds
4:53 PM 73.9 °F 64.0 °F 71% 29.90 in 10.0 mi NW 9.2 mph - N/A   Scattered Clouds
5:53 PM 73.0 °F 63.0 °F 71% 29.91 in 10.0 mi NW 4.6 mph - N/A   Scattered Clouds
6:53 PM 72.0 °F 63.0 °F 73% 29.91 in 10.0 mi Calm Calm - N/A   Scattered Clouds
7:53 PM 71.1 °F 63.0 °F 75% 29.91 in 10.0 mi WNW 3.5 mph - N/A   Partly Cloudy
8:53 PM 70.0 °F 63.0 °F 78% 29.92 in 10.0 mi WNW 4.6 mph - N/A   Clear
9:53 PM 69.1 °F 64.0 °F 84% 29.91 in 10.0 mi West 4.6 mph - N/A   Clear
10:53 PM 68.0 °F 64.0 °F 87% 29.91 in 10.0 mi Calm Calm - N/A   Clear
11:53 PM 66.9 °F 63.0 °F 87% 29.90 in 10.0 mi WNW 5.8 mph - N/A   Partly Cloudy